Location: Newark
(41.9831°N, 91.6686°W)
Time: 07:15:33
(UTC+00:00)

ISS - Visible Passes

Search period start: 23 October 2019 00:00
Search period end: 02 November 2019 00:00
Orbit: 411 x 421 km, 51.6° (Epoch: 23 October)

Date Brightness Start Highest point End Pass type
(mag) Time Alt. Az. Time Alt. Az. Time Alt. Az.
23 Oct -1.7 11:46:20 10° SSW 11:49:17 29° SE 11:52:16 10° ENE visible
24 Oct -1.0 10:58:36 10° S 11:00:54 17° SE 11:03:11 10° E visible
25 Oct -3.7 11:45:23 10° SW 11:48:45 82° SE 11:52:07 10° ENE visible
26 Oct -2.9 10:58:36 25° SSW 11:00:13 46° SE 11:03:29 10° ENE visible
27 Oct -1.5 10:12:37 24° ESE 10:12:37 24° ESE 10:14:38 10° ENE visible
27 Oct -3.2 11:45:33 13° W 11:48:23 41° NNW 11:51:35 10° NE visible
28 Oct -3.8 10:59:23 60° WNW 10:59:42 65° NNW 11:03:04 10° NE visible
29 Oct -1.4 10:13:05 23° ENE 10:13:05 23° ENE 10:14:28 10° ENE visible
29 Oct -2.3 11:46:00 14° WNW 11:48:08 23° NNW 11:50:55 10° NE visible
30 Oct -2.6 10:59:35 30° NNW 10:59:35 30° NNW 11:02:24 10° NE visible
31 Oct -1.0 10:13:05 16° NE 10:13:05 16° NE 10:13:52 10° NE visible
31 Oct -1.7 11:45:59 11° NW 11:47:59 17° N 11:50:18 10° NE visible
01 Nov -1.8 10:59:25 20° N 10:59:25 20° N 11:01:41 10° NE visible
